Location: Lane
(33.5226°N, 79.8788°W)
Time: 04:19:22
(UTC+00:00)

Transit 2A Rocket - Pass Details

Date: 07 October 2022
Orbit: 589 x 911 km, 66.7° (Epoch: 27 November)

Event Time Altitude Azimuth Distance (km) Brightness Sun altitude
Exits shadow 09:18:12 56° 131° (SE) 703 4.9 -25.7°
Maximum altitude 09:18:28 58° 113° (ESE) 693 4.9 -25.7°
Drops below altitude 10° 09:22:39 10° 35° (NE) 1,920 7.6 -24.8°
Sets 09:24:55 0° 31° (NNE) 2,834 8.5 -24.3°
